Location: Maccacari
(45.1333°N, 11.1333°E)
Time: 23:16:21
(UTC+00:00)

CZ-2C R/B - Pass Details

Date: 18 September 2020
Orbit: 785 x 870 km, 98.2° (Epoch: 25 October)

Event Time Altitude Azimuth Distance (km) Brightness Sun altitude
Rises 19:16:58 0° 11° (N) 3,412 6.0 -20.8°
Reaches altitude 10° 19:19:19 10° 10° (N) 2,484 5.3 -21.2°
Maximum altitude 19:24:50 74° 287° (WNW) 896 2.9 -22.0°
Drops below altitude 10° 19:30:24 10° 203° (SSW) 2,504 5.1 -22.9°
Sets 19:32:47 0° 201° (SSW) 3,441 5.8 -23.3°
